When you browse on this site, cookies collect data to enhance your experience and personalize the content and advertising you see.
Visit our Privacy Policy to learn more. By continuing to use the site, you agree to this use of cookies and data.
  • In Sweden
  • List of Countries
  • For 7 days
  • Water Temperature
  • Weather Map
  • Weather Widgets
  • user-avatar
    Login

    Hourly Weather Agon

    Today, 22 November, Friday

    Time Temperature Precipitation Wind Pressure Humidity
    00:00 +6°C° 0 mm 2 mps 721 mmHg 81%
    01:00 +6°C° 0 mm 2 mps 721 mmHg 82%
    02:00 +7°C° 0 mm 2 mps 720 mmHg 83%
    03:00 +7°C° 0 mm 3 mps 719 mmHg 85%
    04:00 +7°C° 0 mm 3 mps 719 mmHg 83%
    05:00 +6°C° 0 mm 4 mps 719 mmHg 81%
    06:00 +7°C° 0 mm 4 mps 718 mmHg 80%
    07:00 +7°C° 0.2 mm 5 mps 718 mmHg 80%
    08:00 +7°C° 0.2 mm 6 mps 717 mmHg 79%
    09:00 +7°C° 0.2 mm 6 mps 717 mmHg 79%
    10:00 +6°C° 0.6 mm 7 mps 716 mmHg 82%
    11:00 +6°C° 0.6 mm 7 mps 715 mmHg 84%
    12:00 +6°C° 0.6 mm 8 mps 714 mmHg 86%
    13:00 +7°C° 0.1 mm 8 mps 713 mmHg 85%
    14:00 +9°C° 0.1 mm 8 mps 712 mmHg 83%
    15:00 +10°C° 0.1 mm 8 mps 710 mmHg 81%
    16:00 +9°C° 2.1 mm 7 mps 710 mmHg 86%
    17:00 +9°C° 2.1 mm 7 mps 710 mmHg 90%
    18:00 +9°C° 2.1 mm 6 mps 709 mmHg 94%
    19:00 +9°C° 1.1 mm 5 mps 709 mmHg 91%
    20:00 +8°C° 1.1 mm 5 mps 709 mmHg 87%
    21:00 +8°C° 1.1 mm 4 mps 709 mmHg 84%
    22:00 +8°C° 0 mm 4 mps 709 mmHg 82%
    23:00 +8°C° 0 mm 4 mps 709 mmHg 81%

    Tomorrow, 23 November, Saturday

    Time Temperature Precipitation Wind Pressure Humidity
    00:00 +8°C° 0 mm 4 mps 709 mmHg 79%
    01:00 +9°C° 0.1 mm 3 mps 709 mmHg 80%
    02:00 +9°C° 0.1 mm 3 mps 709 mmHg 80%
    03:00 +9°C° 0.1 mm 3 mps 709 mmHg 81%
    04:00 +8°C° 0.2 mm 4 mps 710 mmHg 81%
    05:00 +8°C° 0.2 mm 4 mps 711 mmHg 81%
    06:00 +8°C° 0.2 mm 5 mps 712 mmHg 81%
    07:00 +8°C° 0 mm 6 mps 713 mmHg 75%
    08:00 +7°C° 0 mm 8 mps 714 mmHg 70%
    09:00 +7°C° 0 mm 10 mps 715 mmHg 64%
    10:00 +8°C° 0 mm 10 mps 715 mmHg 60%
    11:00 +9°C° 0 mm 10 mps 716 mmHg 55%
    12:00 +9°C° 0 mm 11 mps 716 mmHg 51%
    13:00 +9°C° 0 mm 10 mps 717 mmHg 53%
    14:00 +9°C° 0 mm 10 mps 717 mmHg 55%
    15:00 +9°C° 0 mm 10 mps 718 mmHg 57%
    16:00 +9°C° 0 mm 8 mps 719 mmHg 62%
    17:00 +8°C° 0 mm 7 mps 719 mmHg 66%
    18:00 +7°C° 0 mm 5 mps 720 mmHg 70%
    19:00 +7°C° 0 mm 5 mps 721 mmHg 71%
    20:00 +7°C° 0 mm 5 mps 721 mmHg 72%
    21:00 +7°C° 0 mm 5 mps 722 mmHg 73%
    22:00 +6°C° 0 mm 4 mps 723 mmHg 74%
    23:00 +7°C° 0 mm 3 mps 723 mmHg 75%

    Day after tomorrow, 24 November, Sunday

    Time Temperature Precipitation Wind Pressure Humidity
    00:00 +5°C° 0 mm 3 mps 723 mmHg 76%
    01:00 +5°C° 0 mm 3 mps 724 mmHg 75%
    02:00 +5°C° 0 mm 3 mps 724 mmHg 74%
    03:00 +4°C° 0 mm 3 mps 725 mmHg 73%
    04:00 +4°C° 0 mm 3 mps 725 mmHg 74%
    05:00 +4°C° 0 mm 3 mps 725 mmHg 75%
    06:00 +4°C° 0 mm 3 mps 725 mmHg 76%
    07:00 +4°C° 0 mm 3 mps 726 mmHg 72%
    08:00 +5°C° 0 mm 3 mps 726 mmHg 68%
    09:00 +7°C° 0 mm 3 mps 727 mmHg 64%
    10:00 +9°C° 0 mm 3 mps 727 mmHg 60%
    11:00 +10°C° 0 mm 4 mps 727 mmHg 57%
    12:00 +11°C° 0 mm 4 mps 727 mmHg 53%
    13:00 +11°C° 0 mm 4 mps 727 mmHg 53%
    14:00 +11°C° 0 mm 4 mps 727 mmHg 53%
    15:00 +11°C° 0 mm 4 mps 727 mmHg 54%
    16:00 +10°C° 0 mm 4 mps 727 mmHg 59%
    17:00 +9°C° 0 mm 3 mps 728 mmHg 63%
    18:00 +8°C° 0 mm 3 mps 728 mmHg 68%
    19:00 +8°C° 0 mm 2 mps 728 mmHg 70%
    20:00 +8°C° 0 mm 2 mps 729 mmHg 71%
    21:00 +8°C° 0 mm 2 mps 729 mmHg 72%
    22:00 +7°C° 0 mm 2 mps 729 mmHg 75%
    23:00 +8°C° 0 mm 1 mps 729 mmHg 78%

    25 November, Monday

    Time Temperature Precipitation Wind Pressure Humidity
    00:00 +8°C° 0 mm 1 mps 729 mmHg 81%
    01:00 +8°C° 0 mm 1 mps 729 mmHg 82%
    02:00 +7°C° 0 mm 1 mps 729 mmHg 83%
    03:00 +7°C° 0 mm 1 mps 729 mmHg 84%
    04:00 +7°C° 0 mm 1 mps 729 mmHg 84%
    05:00 +7°C° 0 mm 1 mps 729 mmHg 85%
    06:00 +7°C° 0 mm 1 mps 729 mmHg 86%
    07:00 +8°C° 0 mm 1 mps 729 mmHg 81%
    08:00 +10°C° 0 mm 1 mps 730 mmHg 77%
    09:00 +11°C° 0 mm 1 mps 730 mmHg 73%
    10:00 +12°C° 0 mm 1 mps 730 mmHg 70%
    11:00 +14°C° 0 mm 1 mps 730 mmHg 66%
    12:00 +15°C° 0 mm 2 mps 730 mmHg 63%
    13:00 +15°C° 0 mm 1 mps 729 mmHg 63%
    14:00 +15°C° 0 mm 1 mps 729 mmHg 63%
    15:00 +15°C° 0 mm 1 mps 729 mmHg 64%
    16:00 +14°C° 0 mm 1 mps 729 mmHg 69%
    17:00 +13°C° 0 mm 1 mps 729 mmHg 75%
    18:00 +11°C° 0 mm 1 mps 729 mmHg 81%
    19:00 +11°C° 0 mm 1 mps 729 mmHg 82%
    20:00 +11°C° 0 mm 1 mps 730 mmHg 84%
    21:00 +11°C° 0 mm 1 mps 730 mmHg 86%
    22:00 +11°C° 0 mm 1 mps 730 mmHg 86%
    23:00 +11°C° 0 mm 1 mps 730 mmHg 86%

    26 November, Tuesday

    Time Temperature Precipitation Wind Pressure Humidity
    00:00 +11°C° 0 mm 1 mps 729 mmHg 86%
    01:00 +11°C° 0 mm 1 mps 729 mmHg 86%
    02:00 +10°C° 0 mm 2 mps 729 mmHg 86%
    03:00 +10°C° 0 mm 2 mps 729 mmHg 86%
    04:00 +10°C° 0 mm 2 mps 729 mmHg 87%
    05:00 +11°C° 0 mm 1 mps 729 mmHg 87%
    06:00 +10°C° 0 mm 1 mps 728 mmHg 88%
    07:00 +10°C° 0 mm 2 mps 729 mmHg 84%
    08:00 +13°C° 0 mm 2 mps 729 mmHg 81%
    09:00 +14°C° 0 mm 2 mps 729 mmHg 78%
    10:00 +14°C° 0 mm 3 mps 729 mmHg 73%
    11:00 +16°C° 0 mm 3 mps 729 mmHg 69%
    12:00 +18°C° 0 mm 3 mps 728 mmHg 64%
    13:00 +18°C° 0 mm 3 mps 728 mmHg 64%
    14:00 +18°C° 0 mm 3 mps 727 mmHg 64%
    15:00 +18°C° 0 mm 3 mps 727 mmHg 64%
    16:00 +17°C° 0 mm 3 mps 727 mmHg 69%
    17:00 +14°C° 0 mm 3 mps 727 mmHg 74%
    18:00 +13°C° 0 mm 3 mps 727 mmHg 79%
    19:00 +13°C° 0 mm 3 mps 727 mmHg 80%
    20:00 +12°C° 0 mm 3 mps 727 mmHg 81%
    21:00 +12°C° 0 mm 3 mps 727 mmHg 81%
    22:00 +12°C° 0 mm 3 mps 727 mmHg 82%
    23:00 +11°C° 0 mm 3 mps 727 mmHg 83%

    27 November, Wednesday

    Time Temperature Precipitation Wind Pressure Humidity
    00:00 +11°C° 0 mm 3 mps 727 mmHg 84%
    01:00 +11°C° 0 mm 3 mps 726 mmHg 84%
    02:00 +11°C° 0 mm 3 mps 726 mmHg 84%
    03:00 +11°C° 0 mm 3 mps 726 mmHg 84%
    04:00 +11°C° 0 mm 3 mps 726 mmHg 84%
    05:00 +12°C° 0 mm 2 mps 726 mmHg 85%
    06:00 +12°C° 0 mm 2 mps 726 mmHg 86%
    07:00 +12°C° 0 mm 3 mps 726 mmHg 83%
    08:00 +13°C° 0 mm 3 mps 727 mmHg 80%
    09:00 +13°C° 0 mm 3 mps 727 mmHg 78%
    10:00 +15°C° 0 mm 4 mps 727 mmHg 72%
    11:00 +17°C° 0 mm 4 mps 727 mmHg 67%
    12:00 +18°C° 0 mm 4 mps 727 mmHg 61%
    13:00 +18°C° 0 mm 4 mps 727 mmHg 62%
    14:00 +18°C° 0 mm 3 mps 727 mmHg 63%
    15:00 +18°C° 0 mm 3 mps 726 mmHg 64%
    16:00 +17°C° 0 mm 2 mps 727 mmHg 68%
    17:00 +16°C° 0 mm 2 mps 727 mmHg 71%
    18:00 +15°C° 0 mm 2 mps 727 mmHg 75%
    19:00 +15°C° 0 mm 2 mps 728 mmHg 76%
    20:00 +15°C° 0 mm 2 mps 728 mmHg 76%
    21:00 +15°C° 0 mm 2 mps 728 mmHg 76%
    22:00 +14°C° 0 mm 2 mps 728 mmHg 77%
    23:00 +14°C° 0 mm 2 mps 729 mmHg 78%
    Show more